星链-1474 (STARLINK-1474 )

导读 | 星芒AI

STARLINK-1474 是 SpaceX Starlink 项目中的一颗低轨通信卫星,属于第1474组发射任务中部署的卫星之一。该卫星运行在约550公里高度的近地轨道,旨在为全球用户提供高速互联网服务。作为 Starlink 卫星群的一部分,它采用先进推进系统和激光通信技术,以提高网络稳定性和减少延迟。该卫星的部署有助于扩大 Starlink 在偏远和网络基础设施薄弱地区的覆盖范围。

基本信息
目录编号:
45738
目录名称:
STARLINK-1474
国际标识:
2020-038J
轨道中心:
EARTH
卫星名称:
星链-1474
卫星全名:
星链-1474 (STARLINK-1474 )
卫星状态:
在轨 (已飞行1964 天)
发射日期:
2020-06-13 UTC
国别 :
美国 (US)
星等 :
--
轨道信息
数据来源 国际轨道数据
星历时间: 2025-10-28T19:08:34+0800
1天前
查看轨道信息
半长轴: 6747.746km
偏心率: 0.0003462
轨道倾角: 53.039°
近地点辐角 320.097°
升交点赤经 9.118°
平近点角 39.979°
近地点: 367.274km
远地点: 371.948km
周期: 91.939分钟
每日圈数: 15.662632
详细信息
固有亮度:
5
最大亮度:
2.5
卫星平台:
Starlink V1.0
覆盖范围:
全球
运营商:
太空探索技术公司
运营商所在国:
美国
制造商(研发单位):
太空探索技术公司
制造商所在国:
美国
使用方式:
暂无
卫星简介
星链(Starlink)计划是由太空探索技术公司(SpaceX)提出的一个巨型低轨卫星互联网星座项目,计划在2019年至2024年间在太空搭建由约1.2万颗卫星组成的“星链”网络,其中1584颗将部署在地球上空550千米处的近地轨道,并从2020年开始工作。该卫星仍在工作。
2D轨道图
3D轨道图
轨道高度分析图
轨道倾角分析图
轨道综合分析图
查看轨道综合分析图